Precipitable_Water
0.26 0.27 0.30 0.33 0.33 0.31 0.31 0.31 0.29 0.28 0.29 0.29 0.27 0.28 0.30 0.32 0.28 0.27 0.34 0.39 0.37 0.41 0.43 0.46 0.47 0.48 0.49 0.50 0.52 0.56 0.61 0.64 0.66 0.68 0.68 0.69 0.71 0.78 0.82 0.85 0.89 0.92 0.93 0.96 1.00 1.06 1.11 1.18 1.22 1.23 1.27 1.33 1.37 1.38 1.39 1.42 1.45 1.47 1.51 1.49 1.42 1.31 1.22 1.11 1.12 1.21 1.26 1.25 1.22 1.28 1.30 1.24 1.11 0.96 0.88 0.86 0.89 0.91 0.92 0.92 0.92 0.93 0.95 0.94 0.93 0.92 0.93
0.27 0.30 0.32 0.34 0.33 0.34 0.32 0.32 0.33 0.32 0.31 0.30 0.30 0.29 0.31 0.31 0.30 0.31 0.33 0.36 0.34 0.37 0.39 0.42 0.47 0.51 0.53 0.56 0.61 0.63 0.62 0.62 0.64 0.67 0.68 0.69 0.70 0.74 0.81 0.86 0.89 0.90 0.93 0.95 0.97 1.01 1.07 1.12 1.18 1.25 1.29 1.33 1.36 1.37 1.39 1.41 1.42 1.47 1.48 1.45 1.40 1.32 1.24 1.18 1.22 1.28 1.34 1.34 1.30 1.31 1.27 1.14 1.00 0.88 0.86 0.87 0.90 0.91 0.91 0.91 0.92 0.95 0.94 0.96 0.96 0.95 0.93
0.28 0.31 0.33 0.34 0.34 0.33 0.31 0.33 0.34 0.33 0.34 0.34 0.34 0.32 0.32 0.33 0.31 0.32 0.34 0.35 0.33 0.39 0.41 0.43 0.51 0.56 0.60 0.61 0.59 0.59 0.61 0.63 0.66 0.68 0.68 0.69 0.71 0.76 0.80 0.85 0.87 0.87 0.90 0.95 0.98 0.99 1.01 1.05 1.09 1.16 1.25 1.33 1.37 1.40 1.44 1.45 1.42 1.44 1.44 1.41 1.39 1.35 1.30 1.31 1.36 1.41 1.46 1.45 1.37 1.27 1.21 1.09 0.92 0.84 0.86 0.89 0.89 0.89 0.91 0.91 0.91 0.92 0.94 0.94 0.94 0.94 0.93
0.27 0.31 0.32 0.34 0.35 0.33 0.32 0.32 0.32 0.32 0.34 0.35 0.38 0.34 0.38 0.34 0.33 0.37 0.35 0.33 0.33 0.40 0.47 0.52 0.55 0.57 0.57 0.57 0.59 0.61 0.64 0.66 0.67 0.66 0.69 0.73 0.76 0.79 0.83 0.85 0.88 0.88 0.90 0.93 0.96 0.99 1.01 1.03 1.06 1.10 1.19 1.29 1.36 1.37 1.43 1.44 1.45 1.45 1.40 1.37 1.34 1.33 1.33 1.39 1.45 1.48 1.45 1.39 1.29 1.22 1.14 0.98 0.85 0.86 0.87 0.87 0.86 0.87 0.88 0.89 0.90 0.93 0.94 0.94 0.94 0.94 0.93
0.26 0.32 0.33 0.33 0.34 0.33 0.30 0.30 0.32 0.34 0.36 0.39 0.42 0.44 0.43 0.41 0.40 0.38 0.38 0.35 0.36 0.42 0.51 0.50 0.55 0.57 0.58 0.60 0.62 0.63 0.65 0.66 0.68 0.69 0.71 0.76 0.82 0.87 0.89 0.90 0.91 0.94 0.95 0.96 0.99 1.03 1.05 1.06 1.07 1.11 1.17 1.23 1.28 1.35 1.40 1.47 1.50 1.44 1.38 1.34 1.32 1.31 1.37 1.43 1.47 1.47 1.45 1.40 1.32 1.18 1.01 0.87 0.86 0.88 0.87 0.85 0.86 0.87 0.87 0.90 0.93 0.94 0.96 0.98 0.98 1.00 1.00
0.28 0.31 0.33 0.34 0.31 0.27 0.29 0.44 0.46 0.42 0.40 0.41 0.39 0.39 0.41 0.46 0.45 0.42 0.45 0.45 0.51 0.54 0.54 0.53 0.55 0.57 0.58 0.61 0.68 0.71 0.70 0.70 0.71 0.73 0.76 0.80 0.84 0.89 0.95 0.98 0.98 0.98 1.00 1.02 1.06 1.10 1.12 1.15 1.15 1.15 1.19 1.20 1.26 1.35 1.41 1.48 1.49 1.43 1.38 1.35 1.32 1.32 1.37 1.42 1.45 1.44 1.43 1.37 1.28 1.12 0.93 0.87 0.88 0.89 0.87 0.85 0.87 0.90 0.92 0.95 0.96 0.98 1.01 1.05 1.10 1.12 1.13
0.27 0.31 0.30 0.27 0.25 0.26 0.44 0.53 0.53 0.51 0.51 0.49 0.48 0.49 0.49 0.47 0.47 0.47 0.46 0.48 0.52 0.57 0.60 0.62 0.66 0.68 0.71 0.74 0.74 0.77 0.78 0.76 0.76 0.77 0.79 0.81 0.84 0.89 0.95 1.00 1.06 1.10 1.11 1.10 1.13 1.18 1.20 1.21 1.22 1.23 1.23 1.27 1.31 1.35 1.40 1.42 1.44 1.40 1.37 1.33 1.32 1.35 1.43 1.48 1.50 1.44 1.37 1.31 1.20 1.05 0.92 0.90 0.91 0.89 0.88 0.87 0.90 0.94 0.96 0.97 0.99 1.04 1.12 1.16 1.18 1.20 1.20
0.33 0.30 0.27 0.22 0.25 0.40 0.47 0.49 0.50 0.53 0.53 0.54 0.52 0.48 0.52 0.56 0.55 0.53 0.50 0.53 0.55 0.59 0.61 0.64 0.69 0.72 0.77 0.79 0.80 0.80 0.79 0.78 0.76 0.75 0.76 0.79 0.79 0.77 0.79 0.79 0.86 0.94 1.02 1.07 1.11 1.13 1.17 1.20 1.23 1.24 1.22 1.28 1.28 1.27 1.34 1.35 1.38 1.40 1.39 1.36 1.35 1.39 1.40 1.43 1.39 1.38 1.30 1.21 1.16 1.01 0.91 0.91 0.91 0.88 0.88 0.89 0.92 0.99 1.01 1.04 1.12 1.19 1.22 1.22 1.21 1.21 1.20
0.30 0.31 0.29 0.29 0.40 0.39 0.43 0.44 0.47 0.50 0.48 0.48 0.47 0.45 0.51 0.60 0.63 0.59 0.57 0.60 0.60 0.59 0.59 0.61 0.66 0.73 0.76 0.75 0.76 0.81 0.79 0.79 0.78 0.75 0.75 0.77 0.77 0.77 0.81 0.84 0.86 0.91 0.95 0.97 1.00 1.05 1.09 1.14 1.19 1.21 1.26 1.28 1.25 1.24 1.25 1.30 1.33 1.35 1.36 1.36 1.38 1.47 1.45 1.39 1.35 1.30 1.24 1.17 1.09 0.95 0.89 0.89 0.89 0.88 0.89 0.93 0.98 1.08 1.11 1.15 1.15 1.16 1.18 1.22 1.26 1.28 1.26
0.41 0.33 0.31 0.32 0.30 0.27 0.42 0.51 0.57 0.56 0.56 0.54 0.56 0.53 0.52 0.61 0.65 0.67 0.59 0.58 0.59 0.60 0.63 0.65 0.69 0.72 0.68 0.64 0.67 0.77 0.80 0.80 0.78 0.79 0.80 0.82 0.82 0.80 0.82 0.88 0.89 0.93 0.98 1.02 1.06 1.04 1.04 1.09 1.17 1.24 1.25 1.24 1.21 1.19 1.22 1.26 1.27 1.27 1.31 1.36 1.37 1.33 1.31 1.34 1.28 1.25 1.22 1.14 1.02 0.94 0.94 0.92 0.93 0.94 1.01 1.11 1.18 1.21 1.16 1.13 1.12 1.17 1.25 1.30 1.33 1.37 1.38
0.38 0.35 0.31 0.30 0.28 0.36 0.51 0.55 0.57 0.60 0.60 0.55 0.53 0.45 0.50 0.60 0.65 0.68 0.62 0.58 0.59 0.59 0.60 0.63 0.65 0.61 0.56 0.59 0.67 0.77 0.79 0.78 0.79 0.79 0.82 0.82 0.83 0.84 0.87 0.87 0.87 0.91 0.97 1.01 1.05 1.11 1.13 1.11 1.21 1.28 1.28 1.25 1.21 1.21 1.24 1.27 1.29 1.31 1.32 1.33 1.37 1.36 1.34 1.28 1.25 1.24 1.19 1.08 1.00 0.98 0.99 1.04 1.11 1.16 1.21 1.21 1.19 1.18 1.16 1.17 1.18 1.21 1.22 1.22 1.30 1.40 1.40
0.42 0.38 0.33 0.32 0.37 0.44 0.55 0.62 0.61 0.63 0.66 0.60 0.48 0.34 0.45 0.61 0.68 0.70 0.67 0.63 0.64 0.64 0.65 0.65 0.63 0.59 0.56 0.61 0.68 0.76 0.80 0.81 0.79 0.81 0.82 0.85 0.88 0.90 0.93 0.95 0.94 0.97 1.04 1.07 1.06 1.05 1.04 1.10 1.21 1.26 1.29 1.29 1.30 1.31 1.34 1.35 1.28 1.26 1.30 1.33 1.37 1.35 1.31 1.27 1.25 1.19 1.09 1.01 1.02 1.08 1.15 1.22 1.26 1.27 1.30 1.30 1.26 1.23 1.24 1.27 1.27 1.29 1.27 1.20 1.12 1.06 1.08
0.45 0.40 0.39 0.40 0.46 0.61 0.65 0.66 0.68 0.65 0.66 0.56 0.40 0.36 0.56 0.70 0.72 0.73 0.72 0.70 0.70 0.69 0.68 0.68 0.63 0.69 0.71 0.74 0.79 0.83 0.83 0.81 0.81 0.86 0.88 0.87 0.88 0.91 0.98 1.01 1.08 1.06 1.06 1.05 1.06 1.12 1.19 1.26 1.31 1.41 1.51 1.53 1.53 1.47 1.44 1.35 1.29 1.36 1.41 1.41 1.39 1.33 1.25 1.20 1.15 1.09 1.08 1.13 1.20 1.25 1.26 1.24 1.28 1.33 1.35 1.33 1.33 1.30 1.32 1.38 1.35 1.28 1.20 1.16 1.15 1.12 1.10
0.44 0.45 0.39 0.40 0.49 0.65 0.71 0.73 0.66 0.65 0.52 0.42 0.44 0.64 0.79 0.78 0.75 0.79 0.77 0.74 0.75 0.75 0.74 0.74 0.75 0.79 0.83 0.84 0.83 0.81 0.81 0.81 0.84 0.86 0.91 0.97 1.04 1.11 1.17 1.19 1.15 1.11 1.08 1.06 1.06 1.07 1.11 1.14 1.21 1.22 1.17 1.22 1.43 1.38 1.41 1.40 1.42 1.45 1.39 1.35 1.31 1.24 1.18 1.11 1.09 1.13 1.22 1.29 1.30 1.26 1.27 1.29 1.29 1.29 1.31 1.33 1.33 1.37 1.40 1.36 1.26 1.13 1.11 1.14 1.14 1.09 1.12
0.52 0.49 0.42 0.39 0.35 0.62 0.75 0.70 0.63 0.68 0.49 0.60 0.71 0.79 0.84 0.82 0.79 0.79 0.80 0.80 0.79 0.78 0.76 0.82 0.85 0.86 0.86 0.85 0.84 0.84 0.84 0.84 0.85 0.89 0.94 0.96 1.00 1.05 1.05 1.07 1.12 1.08 1.05 1.07 1.11 1.15 1.21 1.26 1.30 1.24 1.16 1.19 1.27 1.37 1.38 1.47 1.48 1.37 1.32 1.29 1.24 1.20 1.15 1.14 1.18 1.23 1.27 1.26 1.25 1.26 1.25 1.26 1.25 1.27 1.33 1.30 1.34 1.40 1.33 1.20 1.09 1.05 1.06 1.09 1.09 1.08 1.08
0.45 0.43 0.40 0.44 0.64 0.73 0.78 0.69 0.58 0.74 0.78 0.84 0.84 0.78 0.76 0.83 0.81 0.79 0.78 0.79 0.81 0.80 0.78 0.78 0.81 0.85 0.86 0.88 0.89 0.89 0.89 0.90 0.97 1.01 1.02 1.05 1.04 1.04 1.07 1.07 1.07 1.08 1.07 1.12 1.17 1.24 1.31 1.37 1.38 1.31 1.23 1.22 1.26 1.32 1.40 1.48 1.41 1.34 1.29 1.27 1.25 1.22 1.22 1.23 1.26 1.27 1.25 1.22 1.21 1.23 1.23 1.24 1.26 1.23 1.26 1.29 1.28 1.25 1.12 1.03 1.00 1.01 1.05 1.08 1.07 1.01 0.98
0.60 0.53 0.60 0.72 0.80 0.83 0.83 0.82 0.82 0.87 0.94 0.95 0.95 0.90 0.86 0.83 0.84 0.88 0.82 0.82 0.85 0.87 0.85 0.84 0.85 0.84 0.88 0.89 0.92 0.87 0.91 0.94 0.97 1.00 1.05 1.06 1.05 1.05 1.06 1.09 1.15 1.15 1.13 1.14 1.18 1.23 1.32 1.36 1.36 1.32 1.29 1.25 1.22 1.22 1.38 1.51 1.42 1.32 1.30 1.30 1.28 1.26 1.26 1.24 1.17 1.14 1.13 1.14 1.15 1.16 1.20 1.21 1.18 1.18 1.20 1.20 1.12 1.09 1.04 1.00 0.99 0.98 1.00 1.01 0.97 0.94 0.92
0.78 0.80 0.82 0.86 0.86 0.85 0.85 0.87 0.89 0.87 0.91 0.96 0.97 0.94 0.91 0.95 0.95 0.93 0.88 0.89 0.98 0.94 0.94 0.89 0.91 0.93 0.95 0.95 0.95 0.95 0.97 0.97 1.01 1.03 1.04 1.07 1.10 1.12 1.12 1.13 1.16 1.17 1.19 1.19 1.20 1.19 1.24 1.26 1.26 1.27 1.28 1.29 1.20 1.21 1.53 1.59 1.50 1.42 1.47 1.48 1.39 1.33 1.16 1.05 1.02 1.05 1.05 1.10 1.13 1.14 1.15 1.17 1.16 1.15 1.12 1.10 1.04 1.01 0.99 0.97 0.97 0.95 0.94 0.95 0.94 0.93 0.91
0.66 0.61 0.80 0.81 0.82 0.87 0.86 0.85 0.89 0.92 0.94 0.96 0.98 0.96 0.96 0.97 1.01 1.04 1.05 1.00 0.99 1.08 1.06 0.98 0.93 0.95 0.98 0.96 0.99 1.00 1.00 0.99 0.98 0.99 0.96 0.99 1.03 1.04 1.03 1.10 1.14 1.14 1.15 1.15 1.14 1.15 1.12 1.18 1.20 1.25 1.27 1.29 1.26 1.28 1.45 1.52 1.49 1.38 1.32 1.30 1.24 1.04 0.95 0.97 1.04 1.08 1.06 1.07 1.09 1.11 1.10 1.10 1.09 1.08 1.05 1.00 0.95 0.92 0.91 0.90 0.90 0.91 0.91 0.92 0.92 0.93 0.92
0.63 0.66 0.76 0.83 0.88 0.89 0.90 0.89 0.85 0.86 0.91 0.95 0.99 1.02 1.05 1.05 1.06 1.05 1.06 1.09 1.03 1.03 0.99 1.08 1.03 1.00 0.99 0.93 0.92 0.93 0.93 0.93 0.93 0.93 0.95 0.97 1.00 1.04 1.09 1.12 1.15 1.16 1.15 1.13 1.14 1.14 1.12 1.15 1.18 1.21 1.27 1.30 1.29 1.25 1.28 1.43 1.31 1.27 1.21 1.14 0.98 0.97 1.01 1.06 1.10 1.12 1.12 1.12 1.08 1.03 1.01 1.01 0.98 0.97 0.97 0.94 0.89 0.87 0.86 0.88 0.86 0.87 0.89 0.90 0.91 0.92 0.92
0.76 0.84 0.84 0.85 0.84 0.85 0.88 0.93 0.98 0.98 0.97 0.97 0.99 0.99 0.98 1.03 0.99 1.00 1.03 1.03 1.06 1.06 1.05 1.09 1.02 0.95 0.94 0.91 0.87 0.82 0.85 0.86 0.87 0.89 0.92 0.96 0.99 1.05 1.07 1.12 1.17 1.17 1.19 1.18 1.17 1.14 1.13 1.16 1.18 1.21 1.29 1.35 1.31 1.25 1.25 1.28 1.28 1.14 1.06 0.99 0.99 1.04 1.13 1.16 1.17 1.16 1.12 1.06 1.02 0.99 0.97 0.98 0.96 0.95 0.92 0.90 0.88 0.89 0.93 0.93 0.93 0.91 0.90 0.91 0.94 0.97 0.97
0.61 0.61 0.70 0.78 0.67 0.70 0.81 0.88 0.94 0.97 1.01 1.01 0.99 0.99 0.99 1.00 0.99 0.98 0.94 0.96 1.02 1.00 1.04 1.04 0.95 0.87 0.87 0.89 0.87 0.83 0.84 0.84 0.86 0.89 0.92 0.95 1.00 1.05 1.12 1.17 1.20 1.21 1.20 1.17 1.12 1.11 1.15 1.20 1.23 1.23 1.25 1.25 1.24 1.23 1.26 1.06 0.93 0.89 0.92 0.97 1.05 1.10 1.15 1.17 1.15 1.06 1.00 0.97 0.98 0.96 0.94 0.92 0.91 0.91 0.93 0.91 0.89 0.86 0.86 0.91 0.94 0.96 0.96 0.94 0.97 0.99 0.96
0.58 0.75 0.82 0.84 0.81 0.81 0.84 0.87 0.92 0.97 0.97 0.95 0.92 0.90 0.89 0.93 0.94 0.88 0.83 0.80 0.86 0.90 0.90 0.92 0.95 0.91 0.89 0.91 0.92 0.90 0.87 0.86 0.88 0.89 0.90 0.93 0.97 1.01 1.07 1.07 1.09 1.10 1.12 1.13 1.12 1.10 1.13 1.18 1.18 1.16 1.14 1.18 1.18 1.09 1.03 1.01 0.95 0.99 1.06 1.08 1.09 1.14 1.09 1.04 0.97 0.93 0.92 0.93 0.96 0.95 0.94 0.92 0.90 0.86 0.84 0.85 0.87 0.89 0.90 0.91 0.92 0.93 0.92 0.92 0.93 0.96 0.96
0.79 0.86 0.86 0.84 0.81 0.77 0.85 0.88 0.87 0.87 0.89 0.86 0.85 0.84 0.85 0.86 0.87 0.88 0.87 0.88 0.84 0.83 0.87 0.85 0.84 0.85 0.91 0.95 0.95 0.90 0.91 0.94 0.93 0.90 0.92 0.93 0.97 1.00 1.05 1.06 1.08 1.08 1.10 1.11 1.11 1.09 1.11 1.12 1.10 1.11 1.10 1.09 1.08 1.05 1.02 1.01 1.09 1.09 1.09 1.00 0.96 0.92 0.88 0.87 0.88 0.89 0.92 0.94 0.94 0.93 0.92 0.91 0.90 0.86 0.80 0.76 0.80 0.88 0.91 0.91 0.90 0.90 0.90 0.91 0.92 0.94 0.94
0.73 0.81 0.80 0.81 0.80 0.80 0.82 0.80 0.80 0.83 0.85 0.84 0.81 0.81 0.83 0.83 0.85 0.87 0.83 0.82 0.81 0.79 0.77 0.76 0.78 0.83 0.88 0.94 0.94 0.90 0.86 0.90 0.90 0.88 0.86 0.86 0.90 0.92 0.96 1.00 1.03 1.04 1.06 1.10 1.12 1.12 1.11 1.10 1.09 1.08 1.05 1.05 1.09 1.09 1.14 1.14 1.09 1.05 1.03 0.96 0.87 0.84 0.85 0.87 0.89 0.93 0.93 0.92 0.91 0.91 0.89 0.87 0.86 0.83 0.79 0.77 0.77 0.80 0.87 0.89 0.88 0.87 0.88 0.90 0.90 0.91 0.92
0.75 0.76 0.76 0.75 0.75 0.75 0.78 0.80 0.80 0.80 0.81 0.82 0.81 0.81 0.83 0.85 0.86 0.85 0.85 0.84 0.81 0.81 0.79 0.77 0.75 0.79 0.87 0.89 0.89 0.90 0.89 0.87 0.91 0.91 0.86 0.82 0.84 0.88 0.92 0.95 1.02 1.06 1.09 1.13 1.15 1.14 1.11 1.10 1.10 1.07 1.05 1.06 1.06 1.09 1.17 1.18 1.12 1.06 0.99 0.93 0.90 0.88 0.87 0.88 0.89 0.89 0.90 0.91 0.90 0.90 0.91 0.90 0.88 0.85 0.83 0.84 0.83 0.82 0.80 0.81 0.84 0.87 0.90 0.92 0.92 0.93 0.94
0.74 0.76 0.74 0.71 0.70 0.72 0.76 0.73 0.73 0.78 0.79 0.81 0.81 0.83 0.86 0.86 0.86 0.85 0.84 0.84 0.83 0.82 0.79 0.77 0.75 0.74 0.85 0.96 0.98 1.00 0.92 0.94 0.95 0.93 0.88 0.85 0.82 0.83 0.90 0.96 1.00 1.04 1.08 1.11 1.13 1.13 1.09 1.04 1.00 1.00 1.00 1.01 1.02 1.06 1.12 1.15 1.13 1.08 1.00 0.95 0.92 0.93 0.93 0.91 0.89 0.90 0.92 0.92 0.91 0.91 0.92 0.92 0.92 0.90 0.88 0.89 0.87 0.84 0.82 0.80 0.80 0.81 0.84 0.88 0.93 0.94 0.93
0.74 0.75 0.75 0.69 0.68 0.71 0.74 0.79 0.80 0.79 0.79 0.80 0.81 0.80 0.81 0.82 0.80 0.78 0.76 0.75 0.75 0.76 0.76 0.73 0.72 0.69 0.67 0.77 0.88 0.93 0.96 0.95 0.91 0.92 0.91 0.87 0.88 0.92 0.95 0.98 1.03 1.07 1.08 1.06 1.02 1.03 1.00 0.96 0.94 0.94 0.99 1.06 1.10 1.12 1.14 1.15 1.12 1.05 1.00 0.98 0.95 0.94 0.95 0.96 0.96 0.97 0.97 0.96 0.95 0.94 0.93 0.93 0.94 0.93 0.93 0.91 0.88 0.87 0.87 0.87 0.86 0.85 0.85 0.87 0.90 0.93 0.95
0.72 0.73 0.75 0.75 0.75 0.76 0.77 0.77 0.76 0.76 0.76 0.78 0.77 0.76 0.73 0.69 0.68 0.67 0.65 0.64 0.63 0.61 0.58 0.59 0.61 0.61 0.61 0.63 0.72 0.84 0.91 0.96 0.96 0.96 0.95 0.96 0.98 0.99 1.00 1.00 1.01 1.01 1.00 1.00 1.01 1.02 1.02 1.01 1.01 1.04 1.09 1.15 1.17 1.17 1.17 1.18 1.15 1.10 1.07 1.02 0.99 0.97 0.97 0.98 0.99 0.98 0.98 0.98 0.98 0.98 0.98 0.97 0.96 0.95 0.94 0.93 0.93 0.92 0.90 0.89 0.88 0.88 0.87 0.88 0.90 0.91 0.94
0.72 0.74 0.72 0.72 0.72 0.72 0.70 0.68 0.69 0.70 0.69 0.69 0.66 0.63 0.61 0.57 0.52 0.51 0.51 0.50 0.50 0.47 0.49 0.51 0.51 0.53 0.58 0.59 0.62 0.66 0.69 0.74 0.85 0.95 1.00 1.02 1.04 1.03 1.04 1.05 1.01 1.00 0.99 0.98 0.98 0.98 0.96 0.97 1.01 1.03 1.08 1.17 1.24 1.29 1.31 1.24 1.18 1.12 1.06 1.05 1.02 1.01 1.00 1.02 1.02 1.02 1.01 1.00 1.00 1.01 0.99 0.97 0.95 0.93 0.91 0.91 0.92 0.92 0.91 0.90 0.90 0.89 0.87 0.88 0.89 0.88 0.87
0.61 0.64 0.66 0.67 0.68 0.68 0.65 0.64 0.63 0.63 0.63 0.61 0.59 0.55 0.51 0.48 0.43 0.40 0.40 0.42 0.44 0.43 0.43 0.43 0.46 0.49 0.53 0.56 0.60 0.64 0.66 0.70 0.72 0.76 0.88 1.00 1.04 1.04 1.02 1.03 0.99 0.97 0.98 0.98 0.98 0.98 0.98 1.01 1.04 1.05 1.11 1.19 1.25 1.26 1.23 1.18 1.17 1.15 1.12 1.08 1.06 1.06 1.05 1.04 1.04 1.04 1.03 1.01 1.00 0.96 0.94 0.93 0.92 0.90 0.89 0.91 0.93 0.93 0.93 0.93 0.92 0.91 0.91 0.91 0.90 0.90 0.92
0.52 0.51 0.50 0.49 0.49 0.48 0.48 0.49 0.48 0.47 0.47 0.47 0.44 0.42 0.42 0.42 0.41 0.41 0.41 0.41 0.44 0.45 0.44 0.44 0.43 0.42 0.44 0.48 0.52 0.56 0.60 0.64 0.68 0.72 0.81 0.91 0.96 1.00 1.03 1.03 1.04 1.04 1.03 1.02 0.99 0.98 0.99 1.01 1.00 1.04 1.06 1.06 1.09 1.12 1.17 1.21 1.21 1.12 1.07 1.06 1.03 1.03 1.05 1.05 1.03 1.03 1.02 0.99 0.97 0.94 0.93 0.91 0.90 0.92 0.93 0.93 0.93 0.93 0.94 0.93 0.92 0.92 0.92 0.91 0.91 0.93 0.97
0.47 0.44 0.41 0.40 0.38 0.35 0.34 0.36 0.36 0.35 0.38 0.39 0.41 0.43 0.44 0.47 0.47 0.47 0.47 0.47 0.46 0.45 0.44 0.44 0.45 0.46 0.46 0.45 0.43 0.45 0.50 0.56 0.62 0.67 0.70 0.75 0.90 1.00 1.03 1.05 1.05 1.04 1.02 1.01 1.01 1.03 1.03 1.04 1.08 1.13 1.07 1.02 1.01 1.04 1.10 1.13 1.16 1.16 1.13 1.09 1.06 1.03 1.01 1.01 1.02 1.02 1.01 0.99 0.97 0.94 0.93 0.93 0.93 0.94 0.94 0.95 0.95 0.94 0.93 0.92 0.93 0.93 0.94 0.93 0.94 0.97 0.98
0.49 0.45 0.43 0.42 0.39 0.35 0.34 0.35 0.40 0.40 0.42 0.43 0.45 0.45 0.45 0.46 0.49 0.50 0.51 0.52 0.50 0.48 0.46 0.47 0.47 0.45 0.42 0.42 0.43 0.43 0.43 0.43 0.45 0.52 0.58 0.63 0.68 0.74 0.83 0.88 0.90 0.92 0.93 0.97 0.99 0.99 0.98 1.02 1.04 1.07 1.06 1.04 1.04 1.03 1.01 1.01 1.03 1.05 1.06 1.04 1.01 1.00 0.98 0.99 1.00 0.99 0.96 0.94 0.95 0.97 0.97 0.95 0.94 0.94 0.95 0.95 0.95 0.94 0.93 0.93 0.93 0.91 0.90 0.91 0.93 0.94 0.90
0.55 0.50 0.50 0.49 0.49 0.47 0.46 0.43 0.43 0.44 0.46 0.45 0.48 0.50 0.52 0.52 0.52 0.53 0.55 0.53 0.52 0.53 0.54 0.53 0.52 0.52 0.50 0.47 0.42 0.40 0.40 0.42 0.45 0.49 0.55 0.62 0.67 0.71 0.74 0.75 0.78 0.82 0.85 0.87 0.90 0.94 1.02 1.10 1.16 1.19 1.18 1.14 1.12 1.09 1.07 1.04 1.02 1.00 0.98 0.97 0.96 0.95 0.95 0.96 0.97 0.97 0.96 0.97 0.98 0.96 0.94 0.93 0.94 0.96 0.96 0.94 0.94 0.94 0.94 0.93 0.91 0.87 0.85 0.85 0.85 0.84 0.82
0.57 0.54 0.54 0.53 0.53 0.53 0.53 0.54 0.54 0.54 0.53 0.53 0.53 0.55 0.55 0.56 0.56 0.56 0.54 0.55 0.58 0.59 0.58 0.56 0.56 0.56 0.53 0.51 0.47 0.44 0.42 0.41 0.43 0.49 0.56 0.64 0.71 0.74 0.75 0.74 0.73 0.73 0.78 0.87 1.01 1.09 1.12 1.14 1.12 1.10 1.09 1.09 1.09 1.10 1.08 1.02 0.99 0.97 0.97 0.97 0.97 0.98 0.99 0.99 1.00 1.00 0.99 0.97 0.95 0.94 0.93 0.94 0.93 0.93 0.93 0.92 0.91 0.91 0.90 0.89 0.88 0.86 0.85 0.85 0.83 0.81 0.78
0.62 0.58 0.57 0.56 0.56 0.56 0.56 0.57 0.59 0.59 0.60 0.61 0.62 0.62 0.61 0.61 0.61 0.62 0.62 0.60 0.59 0.60 0.60 0.59 0.59 0.57 0.57 0.58 0.59 0.58 0.56 0.54 0.55 0.57 0.65 0.74 0.79 0.77 0.79 0.82 0.87 0.88 0.90 0.87 1.03 1.09 1.04 1.06 1.11 1.12 1.07 1.05 1.02 0.99 0.99 0.98 0.97 0.98 0.99 0.98 0.97 0.96 0.96 0.95 0.95 0.94 0.94 0.94 0.94 0.92 0.91 0.91 0.90 0.90 0.90 0.88 0.87 0.86 0.84 0.83 0.84 0.84 0.84 0.82 0.80 0.78 0.75
0.63 0.62 0.61 0.60 0.61 0.61 0.60 0.62 0.64 0.65 0.65 0.63 0.65 0.66 0.67 0.68 0.69 0.68 0.67 0.66 0.66 0.67 0.65 0.64 0.63 0.66 0.66 0.67 0.66 0.65 0.66 0.69 0.72 0.75 0.79 0.85 0.90 0.87 0.86 0.85 0.88 0.92 0.89 0.89 0.94 0.95 0.98 1.06 1.07 1.02 0.98 0.95 0.95 0.95 0.97 0.99 0.98 0.96 0.96 0.96 0.95 0.95 0.93 0.91 0.91 0.90 0.88 0.89 0.89 0.88 0.88 0.87 0.85 0.83 0.82 0.81 0.79 0.77 0.76 0.76 0.76 0.75 0.74 0.73 0.71 0.69 0.69
0.63 0.66 0.67 0.68 0.69 0.69 0.68 0.69 0.70 0.70 0.69 0.65 0.66 0.68 0.72 0.72 0.72 0.71 0.70 0.70 0.73 0.74 0.70 0.68 0.69 0.69 0.68 0.65 0.65 0.69 0.72 0.74 0.77 0.85 0.93 0.96 0.96 0.89 0.82 0.86 0.92 1.01 1.00 1.02 0.99 1.00 1.05 1.04 1.02 1.01 1.00 0.98 0.95 0.94 0.96 0.98 0.96 0.96 0.97 0.96 0.94 0.94 0.93 0.91 0.89 0.87 0.86 0.87 0.86 0.83 0.82 0.79 0.77 0.74 0.72 0.69 0.66 0.65 0.64 0.63 0.64 0.64 0.64 0.65 0.65 0.64 0.64
0.66 0.67 0.68 0.70 0.69 0.71 0.71 0.71 0.72 0.72 0.74 0.76 0.74 0.71 0.73 0.72 0.72 0.70 0.71 0.71 0.75 0.77 0.75 0.74 0.70 0.67 0.69 0.71 0.71 0.71 0.76 0.80 0.83 0.84 0.97 1.03 1.02 0.96 0.96 0.98 1.01 1.01 1.02 1.01 1.01 1.03 1.07 1.09 1.06 1.02 0.99 0.96 0.94 0.92 0.94 0.96 0.94 0.94 0.95 0.93 0.92 0.91 0.89 0.88 0.87 0.85 0.84 0.83 0.80 0.78 0.74 0.71 0.68 0.66 0.65 0.64 0.63 0.62 0.62 0.63 0.64 0.64 0.64 0.62 0.60 0.58 0.56
0.70 0.71 0.73 0.73 0.74 0.75 0.74 0.73 0.74 0.76 0.78 0.79 0.79 0.79 0.80 0.78 0.78 0.75 0.74 0.75 0.79 0.82 0.83 0.82 0.78 0.76 0.76 0.78 0.79 0.82 0.86 0.90 0.89 0.86 0.87 0.94 0.91 0.93 0.91 0.90 0.98 1.03 1.06 1.08 1.09 1.09 1.11 1.10 1.04 0.98 0.96 0.93 0.89 0.90 0.93 0.94 0.92 0.91 0.90 0.90 0.88 0.88 0.86 0.86 0.86 0.86 0.83 0.80 0.78 0.75 0.72 0.70 0.69 0.67 0.65 0.65 0.64 0.63 0.62 0.62 0.62 0.63 0.62 0.61 0.60 0.58 0.56
0.69 0.73 0.74 0.75 0.76 0.75 0.74 0.75 0.76 0.75 0.77 0.79 0.80 0.81 0.82 0.83 0.80 0.77 0.78 0.80 0.81 0.83 0.83 0.86 0.89 0.86 0.85 0.84 0.84 0.85 0.86 0.88 0.92 0.93 0.93 0.91 0.90 0.92 0.91 0.95 1.06 1.08 1.09 1.07 1.07 1.10 1.11 1.06 1.01 0.96 0.94 0.93 0.91 0.90 0.91 0.94 0.92 0.91 0.86 0.81 0.80 0.81 0.83 0.85 0.84 0.83 0.81 0.79 0.76 0.75 0.74 0.72 0.70 0.69 0.69 0.67 0.65 0.64 0.63 0.63 0.64 0.64 0.65 0.62 0.59 0.58 0.57
0.66 0.69 0.72 0.73 0.75 0.76 0.76 0.75 0.75 0.74 0.75 0.77 0.79 0.81 0.82 0.80 0.78 0.77 0.77 0.78 0.79 0.81 0.82 0.84 0.87 0.89 0.89 0.89 0.89 0.86 0.85 0.88 0.90 0.97 1.01 1.02 1.04 1.01 0.97 0.98 1.03 1.07 1.09 1.08 1.07 1.06 1.03 1.00 0.99 0.97 0.96 0.95 0.96 0.97 0.91 0.88 0.89 0.88 0.83 0.80 0.79 0.76 0.73 0.71 0.70 0.70 0.70 0.70 0.71 0.73 0.73 0.72 0.70 0.68 0.66 0.65 0.65 0.65 0.65 0.64 0.62 0.63 0.63 0.60 0.58 0.58 0.57
0.63 0.66 0.69 0.70 0.71 0.73 0.75 0.75 0.77 0.77 0.75 0.76 0.80 0.81 0.81 0.79 0.78 0.76 0.76 0.78 0.81 0.84 0.85 0.86 0.87 0.88 0.90 0.93 0.94 0.94 0.95 0.96 0.95 0.98 0.98 1.00 1.02 1.05 1.08 1.04 1.03 1.06 1.08 1.05 1.03 1.02 1.01 0.99 0.98 0.99 0.98 0.97 0.99 0.97 0.90 0.85 0.78 0.79 0.77 0.73 0.70 0.68 0.65 0.63 0.62 0.62 0.62 0.62 0.61 0.61 0.61 0.62 0.61 0.60 0.59 0.58 0.58 0.59 0.60 0.62 0.63 0.63 0.63 0.60 0.58 0.58 0.57
0.64 0.65 0.67 0.70 0.72 0.73 0.72 0.73 0.74 0.74 0.77 0.81 0.82 0.84 0.84 0.81 0.81 0.84 0.85 0.86 0.85 0.86 0.90 0.91 0.91 0.90 0.93 0.94 0.93 0.95 0.99 1.02 1.03 1.05 0.95 0.90 0.86 0.89 1.00 1.03 1.02 1.03 1.02 1.02 1.02 1.01 1.01 1.02 1.02 1.01 0.99 0.97 0.94 0.88 0.83 0.76 0.68 0.61 0.62 0.65 0.64 0.61 0.58 0.56 0.55 0.54 0.55 0.55 0.55 0.56 0.56 0.56 0.55 0.55 0.54 0.54 0.53 0.53 0.54 0.56 0.59 0.60 0.59 0.57 0.57 0.56 0.56
0.67 0.67 0.68 0.70 0.70 0.72 0.74 0.76 0.78 0.81 0.80 0.78 0.79 0.82 0.84 0.84 0.85 0.87 0.87 0.87 0.87 0.86 0.88 0.93 0.94 0.94 0.94 0.92 0.92 0.95 0.98 0.99 1.01 1.02 0.99 0.92 0.86 0.90 1.00 1.01 1.04 1.08 1.09 1.07 1.05 1.05 1.03 1.03 1.01 0.99 0.97 0.95 0.90 0.83 0.75 0.68 0.62 0.59 0.57 0.56 0.55 0.55 0.55 0.55 0.55 0.54 0.53 0.51 0.50 0.49 0.49 0.50 0.50 0.50 0.51 0.51 0.51 0.52 0.53 0.54 0.55 0.56 0.56 0.55 0.55 0.55 0.55
0.68 0.68 0.68 0.69 0.71 0.73 0.76 0.78 0.79 0.79 0.79 0.77 0.74 0.75 0.80 0.84 0.86 0.88 0.88 0.90 0.90 0.90 0.91 0.91 0.94 0.96 0.99 0.97 0.93 0.89 0.90 0.92 0.95 0.99 1.01 1.03 1.05 1.04 1.04 1.05 1.06 1.07 1.06 1.04 1.04 1.04 1.02 0.99 0.96 0.93 0.89 0.87 0.83 0.75 0.68 0.63 0.60 0.57 0.56 0.55 0.54 0.54 0.55 0.55 0.54 0.52 0.51 0.51 0.50 0.50 0.49 0.48 0.47 0.46 0.47 0.47 0.48 0.49 0.50 0.50 0.51 0.53 0.54 0.54 0.54 0.54 0.53
0.69 0.68 0.67 0.69 0.70 0.71 0.73 0.72 0.71 0.70 0.70 0.71 0.74 0.76 0.79 0.84 0.86 0.87 0.89 0.91 0.92 0.92 0.92 0.93 0.93 0.94 0.97 0.98 0.99 0.98 0.94 0.88 0.80 0.86 0.96 0.97 0.98 1.00 1.00 1.00 1.00 1.00 0.99 0.97 0.96 0.94 0.91 0.89 0.86 0.84 0.83 0.82 0.77 0.68 0.64 0.62 0.60 0.59 0.57 0.57 0.56 0.55 0.54 0.53 0.51 0.50 0.49 0.49 0.48 0.48 0.48 0.47 0.46 0.46 0.47 0.46 0.46 0.47 0.47 0.47 0.48 0.49 0.51 0.51 0.51 0.52 0.51
0.69 0.69 0.68 0.70 0.70 0.70 0.67 0.65 0.64 0.64 0.66 0.70 0.71 0.69 0.72 0.77 0.81 0.81 0.82 0.84 0.86 0.85 0.85 0.88 0.90 0.92 0.94 0.96 0.97 0.99 0.99 1.00 0.90 0.84 0.92 0.95 0.95 0.95 0.96 0.96 0.96 0.95 0.96 0.94 0.90 0.88 0.87 0.85 0.81 0.79 0.76 0.75 0.67 0.63 0.62 0.62 0.61 0.61 0.60 0.58 0.57 0.56 0.55 0.53 0.52 0.51 0.49 0.48 0.48 0.47 0.47 0.46 0.45 0.44 0.44 0.45 0.45 0.46 0.47 0.48 0.48 0.49 0.48 0.49 0.49 0.50 0.50
0.64 0.65 0.65 0.64 0.65 0.66 0.67 0.64 0.60 0.61 0.63 0.65 0.64 0.64 0.64 0.63 0.61 0.65 0.72 0.73 0.74 0.76 0.76 0.76 0.80 0.84 0.87 0.89 0.91 0.94 0.95 0.95 0.95 0.96 0.95 0.93 0.93 0.92 0.92 0.92 0.92 0.92 0.91 0.88 0.87 0.86 0.85 0.81 0.77 0.73 0.72 0.69 0.65 0.63 0.63 0.63 0.62 0.62 0.61 0.61 0.60 0.59 0.56 0.54 0.52 0.52 0.52 0.51 0.50 0.48 0.47 0.46 0.44 0.44 0.44 0.44 0.45 0.46 0.46 0.47 0.48 0.48 0.48 0.49 0.49 0.49 0.49
0.59 0.58 0.60 0.63 0.64 0.65 0.67 0.66 0.64 0.62 0.60 0.61 0.61 0.61 0.61 0.57 0.55 0.57 0.60 0.64 0.65 0.62 0.62 0.65 0.67 0.70 0.76 0.81 0.85 0.90 0.92 0.92 0.91 0.92 0.90 0.90 0.91 0.92 0.93 0.92 0.90 0.89 0.88 0.86 0.83 0.80 0.79 0.75 0.72 0.70 0.70 0.68 0.65 0.64 0.64 0.64 0.64 0.64 0.64 0.63 0.63 0.62 0.59 0.57 0.55 0.55 0.54 0.51 0.49 0.47 0.46 0.44 0.43 0.43 0.43 0.44 0.44 0.45 0.46 0.46 0.47 0.47 0.46 0.47 0.47 0.48 0.49
0.61 0.59 0.57 0.58 0.60 0.62 0.61 0.63 0.65 0.64 0.61 0.60 0.58 0.56 0.55 0.54 0.53 0.54 0.56 0.62 0.59 0.54 0.54 0.55 0.55 0.61 0.64 0.66 0.71 0.77 0.83 0.85 0.85 0.86 0.86 0.86 0.86 0.86 0.88 0.88 0.86 0.85 0.85 0.85 0.84 0.81 0.79 0.76 0.72 0.69 0.68 0.67 0.66 0.65 0.66 0.67 0.67 0.66 0.66 0.66 0.65 0.63 0.61 0.59 0.57 0.54 0.50 0.48 0.46 0.45 0.44 0.43 0.42 0.42 0.42 0.43 0.44 0.45 0.46 0.46 0.47 0.47 0.47 0.47 0.47 0.48 0.48
Wind_Speed
30 27 24 22 23 27 27 26 25 24 22 22 24 25 22 20 19 20 20 20 21 21 20 20 21 20 19 20 19 18 18 17 17 15 15 15 15 15 15 15 16 17 17 18 18 19 20 20 21 21 21 22 22 22 22 22 22 22 22 22 22 22 23 22 22 23 23 22 22 21 20 20 20 20 20 20 21 21 20 21 21 22 22 22 22 23 24
28 28 25 22 21 23 26 26 24 21 21 21 22 24 24 23 22 20 21 24 24 23 22 22 21 20 19 19 19 18 17 17 17 16 15 16 16 17 17 18 19 19 19 19 19 20 20 20 21 22 23 23 23 23 23 23 23 23 22 22 22 23 23 23 23 23 23 23 22 21 20 20 20 20 20 21 21 21 21 21 22 22 23 23 23 24 24
27 27 26 23 21 20 22 24 22 20 19 19 18 19 22 23 22 20 22 24 24 23 22 20 19 19 19 20 19 18 18 18 18 17 16 17 17 18 19 19 19 19 20 20 21 21 21 22 22 23 24 24 25 25 25 25 24 24 23 23 22 23 23 23 23 23 23 23 22 21 20 20 20 21 21 21 21 21 21 22 22 22 23 23 24 24 25
26 26 25 22 21 19 19 21 22 20 19 18 17 15 17 20 20 18 20 24 24 22 19 18 18 19 19 20 20 19 19 19 19 18 18 18 19 20 20 20 19 20 20 21 22 22 22 23 24 24 24 24 25 26 26 26 26 25 24 23 23 22 23 23 23 23 22 21 21 21 21 21 21 21 21 21 21 22 22 22 23 22 23 24 25 25 25
24 25 25 22 19 16 17 19 20 19 18 17 16 14 15 17 18 17 19 22 22 20 18 19 19 20 19 19 19 19 19 19 19 19 19 19 20 20 20 20 21 21 22 22 22 23 24 24 25 25 25 25 26 26 26 27 27 26 25 24 23 23 22 22 22 21 21 21 21 21 21 22 22 21 21 22 22 23 23 23 23 24 24 25 26 26 26
23 23 23 22 19 17 17 18 17 16 16 16 16 16 15 17 18 18 17 17 16 17 19 20 20 20 19 18 18 19 19 17 17 17 18 19 19 20 21 22 23 24 23 22 23 24 25 25 26 26 26 26 26 26 26 27 26 26 26 25 24 23 22 22 21 21 20 20 21 21 22 22 22 22 22 23 23 24 24 24 24 25 26 26 26 26 26
24 23 22 21 22 20 19 18 16 14 14 14 14 14 14 14 16 17 15 15 15 15 16 17 17 17 18 17 17 18 17 16 15 15 16 16 18 19 21 23 24 25 25 25 25 25 26 27 27 26 26 26 26 26 26 26 26 26 26 25 24 24 22 22 22 21 20 20 21 22 22 22 22 23 23 23 24 24 25 25 26 26 27 27 27 27 27
23 23 22 22 22 20 19 19 18 15 13 13 12 11 11 12 13 14 14 15 16 15 15 17 18 17 17 17 17 18 17 16 15 15 16 18 19 20 21 22 23 24 25 25 25 26 27 27 27 26 26 26 26 26 26 26 26 26 25 24 24 23 22 21 21 21 21 21 22 22 22 22 23 23 24 24 25 25 26 26 27 27 28 29 29 29 28
21 22 22 21 19 17 16 17 19 18 16 16 14 12 12 12 12 13 13 14 16 16 17 18 19 18 17 17 18 19 19 19 18 18 19 20 20 21 21 21 22 22 23 24 24 25 25 26 26 27 26 26 27 27 26 27 26 26 24 23 23 23 22 22 22 21 22 22 22 22 22 23 23 24 25 25 25 25 26 27 28 29 30 30 31 30 29
18 19 19 19 18 18 17 18 19 20 19 18 16 14 14 15 14 14 14 15 15 16 16 17 18 18 17 18 20 21 22 21 21 21 21 21 21 21 21 20 21 22 22 23 23 24 24 24 25 26 26 27 27 27 27 27 26 25 24 23 23 23 22 23 23 22 22 23 23 22 23 23 24 25 25 24 25 25 26 28 29 30 30 31 32 32 30
18 18 19 20 19 19 19 18 18 19 19 19 18 15 16 18 18 17 17 17 16 16 17 17 17 17 19 22 23 23 22 22 21 20 20 21 21 21 21 21 22 22 22 22 22 22 23 24 25 26 27 28 28 28 28 26 25 25 25 24 23 22 22 23 23 23 23 23 22 22 23 24 24 25 25 25 26 26 27 28 29 29 30 30 31 31 30
18 18 19 20 19 18 19 18 17 18 18 17 17 17 18 20 19 18 17 17 17 17 17 17 17 18 20 22 22 22 22 22 22 21 21 22 22 22 22 22 22 21 21 20 20 21 22 23 24 25 27 28 28 28 28 27 26 26 26 25 23 23 23 23 23 23 22 22 22 23 23 24 25 25 26 26 27 27 28 29 29 29 29 30 30 30 30
19 19 19 18 18 18 19 19 19 19 17 16 17 19 20 19 17 16 15 15 16 16 16 17 18 20 21 21 22 22 22 22 22 22 23 23 23 23 23 22 21 20 20 20 20 20 21 21 22 22 24 25 25 25 25 25 26 25 25 23 23 23 22 22 22 21 21 21 22 23 24 24 25 26 26 27 27 28 28 29 30 31 31 31 31 31 31
19 20 20 19 19 19 19 19 20 19 17 16 17 19 19 17 15 14 14 14 14 15 16 17 18 19 20 20 20 21 21 21 22 22 22 22 22 22 21 20 20 19 19 20 19 20 21 21 21 21 22 22 23 24 24 24 23 22 21 20 20 19 19 19 19 19 20 21 22 23 24 25 25 26 27 27 27 28 29 30 31 33 33 32 31 31 31
19 19 19 20 21 21 20 19 19 18 18 19 19 19 18 16 15 14 14 15 15 15 16 17 18 18 18 18 19 20 20 20 21 21 22 22 22 21 21 20 19 19 19 19 19 19 20 20 20 21 20 21 23 24 24 25 22 19 18 18 17 17 16 16 18 19 20 22 23 23 24 25 25 26 26 27 27 29 31 32 33 33 33 32 31 31 31
19 19 19 20 22 22 19 18 17 16 17 18 18 18 18 17 16 16 16 16 17 17 17 17 17 17 17 17 18 18 19 20 21 22 23 23 22 22 21 20 19 18 18 18 18 19 20 20 20 21 20 21 21 21 23 24 23 20 18 18 17 16 15 17 19 21 22 22 23 23 24 24 25 25 26 27 28 30 31 32 33 33 32 31 32 32 31
21 20 20 21 21 19 16 14 14 13 13 14 15 16 17 18 18 18 18 18 18 18 18 18 17 17 18 18 18 19 19 20 21 21 22 22 21 21 21 20 20 19 18 18 18 19 20 20 21 21 20 20 19 20 23 23 23 21 20 20 18 15 16 18 19 21 22 22 22 23 23 23 24 25 27 28 29 30 31 32 32 32 32 32 32 32 31
20 19 20 21 20 18 15 13 13 12 12 12 13 13 15 16 17 18 19 20 19 18 18 18 18 19 19 19 19 20 21 20 20 19 20 20 20 20 20 20 20 19 18 18 18 18 19 20 20 20 20 19 18 20 22 22 21 20 19 18 16 15 17 18 19 19 20 21 21 21 22 23 25 26 28 29 30 30 31 31 32 31 31 32 32 32 31
19 18 20 21 21 19 18 16 15 14 14 14 14 13 14 15 16 17 18 19 19 19 18 17 18 19 20 19 19 20 20 19 19 19 20 20 20 21 21 21 20 20 19 19 19 19 19 19 19 19 18 18 17 18 19 19 18 17 17 17 17 18 19 19 19 19 20 21 22 22 23 24 26 28 29 30 30 30 30 31 31 31 31 30 30 30 31
19 20 21 21 20 19 19 18 18 18 17 17 17 17 17 17 17 18 18 18 18 19 20 19 19 19 19 19 19 19 19 19 19 19 20 21 22 22 22 22 21 20 19 19 19 19 19 19 18 17 17 17 17 17 19 19 18 18 19 20 22 23 22 21 21 20 21 22 23 23 24 26 27 29 30 30 30 30 30 30 30 30 30 30 30 30 30
18 19 21 21 18 17 18 17 18 18 18 18 18 19 19 19 18 18 18 17 17 17 18 19 18 17 18 18 18 18 19 19 19 20 21 22 22 23 22 22 21 20 19 19 19 19 19 18 17 17 17 17 17 18 20 21 21 21 22 23 24 24 24 23 22 22 22 23 23 24 26 27 28 30 30 30 30 30 30 30 30 30 29 29 29 30 30
19 20 21 20 19 18 18 17 16 17 17 17 17 17 17 17 17 17 17 15 15 14 15 17 17 17 18 18 18 18 19 19 20 20 21 21 22 23 22 21 20 20 20 20 19 19 18 18 17 17 17 18 18 19 21 22 22 22 23 25 26 25 24 23 23 23 23 24 25 26 27 28 29 30 30 30 30 30 30 30 29 29 29 29 29 29 29
19 19 20 20 18 19 19 18 17 16 15 15 14 14 15 16 17 16 15 14 14 15 16 17 17 18 19 19 19 18 19 19 20 20 20 21 22 22 22 21 20 20 20 20 19 19 19 19 18 17 17 18 18 20 21 23 23 23 24 25 25 24 24 23 24 24 25 26 27 28 28 29 30 30 30 30 30 29 29 29 29 29 29 29 29 29 28
16 16 18 18 17 17 17 17 16 16 15 14 14 15 15 16 16 16 15 15 16 16 17 17 18 19 19 20 20 20 20 20 20 20 20 21 21 21 21 21 20 20 20 20 20 20 20 19 19 18 18 19 20 21 22 23 23 24 25 25 24 24 25 25 25 25 26 27 28 29 29 30 30 30 30 29 29 29 28 28 29 29 29 29 28 27 27
15 15 16 16 15 15 16 16 15 15 15 15 14 15 16 16 16 16 16 15 15 15 15 16 18 19 20 21 22 22 22 22 22 21 21 22 21 21 21 21 20 20 20 20 20 20 20 20 20 19 20 21 22 22 24 24 24 25 25 25 25 26 26 26 26 26 27 29 29 30 30 30 30 30 30 29 28 28 28 28 28 28 28 27 27 26 25
14 15 14 14 14 14 15 14 14 14 14 14 14 15 15 16 16 16 16 15 15 15 16 17 19 20 21 23 24 24 23 23 22 22 22 22 22 22 22 21 21 21 21 20 20 20 20 21 21 22 23 25 26 26 27 26 26 25 25 26 26 26 27 27 27 28 29 30 30 30 30 30 30 30 29 29 28 28 28 28 28 27 27 26 26 25 24
12 13 13 12 12 12 12 12 13 14 14 14 15 15 15 16 16 16 16 17 17 18 19 20 21 22 22 22 24 24 24 22 22 22 22 22 23 23 23 22 22 22 21 21 21 22 22 23 23 24 26 27 27 27 26 26 26 26 26 26 26 27 27 27 28 28 29 29 29 29 29 29 29 29 29 29 29 29 29 28 27 26 26 25 24 23 23
9 10 10 11 11 12 12 12 13 13 14 14 15 16 16 17 17 18 18 19 20 21 21 22 22 22 22 22 23 23 24 23 23 23 23 23 24 24 23 23 22 22 22 22 23 23 23 23 24 25 26 26 26 25 25 26 26 26 26 26 26 26 27 27 27 28 28 28 28 28 29 29 30 30 30 30 30 29 29 27 26 26 25 24 23 22 22
8 8 9 9 10 12 12 13 14 14 15 16 17 17 18 18 19 20 20 21 21 22 22 22 22 22 22 22 22 23 24 25 26 26 26 25 25 24 24 23 23 22 22 22 22 22 23 24 24 24 25 25 25 25 25 25 25 25 26 26 26 26 26 27 27 28 28 28 29 29 29 30 30 30 30 30 29 29 28 26 25 24 23 22 21 21 21
9 9 9 9 11 12 13 14 15 17 18 18 19 19 20 20 20 21 22 22 22 22 23 23 23 23 23 23 24 25 25 26 27 27 27 26 25 24 24 24 23 23 23 22 22 23 23 23 23 23 24 25 25 25 25 25 25 25 25 25 26 26 26 27 27 28 28 29 29 30 30 30 30 30 30 29 29 27 26 24 23 23 22 21 20 20 20
9 9 10 11 12 13 14 16 17 18 19 20 20 21 21 22 22 22 22 22 23 23 24 24 24 24 24 24 25 26 26 26 26 26 26 26 25 25 24 24 24 23 23 23 24 24 24 23 22 23 24 24 25 25 26 26 25 25 24 24 25 25 26 26 27 28 29 29 30 30 30 30 30 29 29 28 27 25 24 23 22 21 21 20 20 20 19
10 11 12 14 15 15 16 18 19 20 20 21 21 22 22 22 23 23 23 23 23 23 24 24 24 25 25 25 26 26 27 27 26 25 24 25 25 25 25 24 24 24 24 25 25 25 25 24 23 23 24 24 25 26 26 26 25 25 25 25 26 26 26 27 28 29 30 30 30 30 30 30 29 28 27 26 25 23 22 21 21 20 20 20 20 19 19
12 13 14 15 16 17 18 18 19 20 21 21 21 22 22 22 22 23 23 23 23 23 23 24 25 26 26 27 27 27 27 27 26 26 26 26 25 25 26 26 26 26 26 26 26 26 25 24 24 25 25 25 25 25 26 26 27 27 28 28 28 28 29 29 29 29 29 30 30 30 30 29 27 26 25 24 23 22 21 20 19 19 19 19 19 19 18
12 13 14 15 16 17 18 19 19 20 20 21 21 22 22 22 22 23 23 23 23 24 24 25 26 27 27 28 28 28 28 27 27 28 28 28 27 26 26 26 27 27 27 27 27 26 26 25 26 26 25 25 25 25 25 26 27 28 28 29 29 29 29 29 28 28 29 29 29 28 27 26 25 24 23 22 21 20 19 19 19 18 18 18 18 18 18
13 13 14 15 16 17 18 19 19 20 21 21 21 21 22 22 23 23 24 24 25 25 26 26 27 27 28 28 28 28 29 29 29 29 29 29 28 27 27 27 27 27 27 27 26 25 25 25 25 25 24 23 23 24 24 25 26 27 27 28 28 29 29 29 28 28 27 27 26 25 24 23 23 22 21 20 19 19 19 19 19 18 18 17 18 18 18
14 15 15 16 17 17 18 19 20 20 21 21 22 22 23 23 24 24 25 26 26 27 27 28 28 28 28 28 28 29 29 30 30 30 29 28 28 27 26 26 26 25 25 25 24 23 23 24 24 23 23 23 23 24 24 25 26 26 27 27 27 28 27 27 27 26 26 25 24 23 22 21 21 20 19 18 18 18 19 19 19 18 18 18 18 17 17
15 16 17 17 18 18 19 20 21 21 21 21 22 22 23 24 24 25 25 26 27 27 28 28 28 29 29 29 29 29 29 30 30 29 28 28 27 26 25 25 25 25 24 24 24 24 24 24 24 23 24 25 25 25 25 26 26 26 26 26 26 26 25 25 24 24 23 22 21 20 20 19 19 18 18 18 18 19 18 18 19 19 18 18 18 17 17
16 17 17 18 19 19 20 21 21 21 20 21 22 22 22 23 23 24 25 26 26 27 27 28 29 29 28 28 28 27 27 27 27 27 27 26 25 24 24 24 24 24 24 24 24 24 24 24 24 24 24 25 25 25 25 25 25 25 25 24 24 23 23 23 22 21 21 20 19 19 18 18 18 18 18 19 19 19 19 19 19 19 19 19 18 17 17
16 17 17 18 19 19 20 20 20 19 20 20 21 21 22 22 23 23 24 25 26 26 27 28 28 28 27 27 26 26 26 25 24 25 25 24 23 23 23 24 24 24 23 23 23 23 22 22 22 22 22 22 23 24 24 24 24 23 23 22 22 22 21 21 20 20 19 18 18 18 18 18 18 19 19 19 19 19 19 19 19 19 19 19 18 17 17
15 16 17 17 18 18 18 19 19 19 19 20 20 20 21 22 22 23 23 24 25 26 26 27 27 27 27 26 26 25 25 24 23 24 24 24 23 23 23 23 22 22 21 21 20 20 20 20 19 19 20 20 21 21 22 21 21 21 21 21 20 20 20 19 19 18 18 17 18 18 19 19 19 19 19 19 19 20 19 19 19 19 19 18 18 17 17
14 15 16 16 16 17 17 18 18 19 19 19 19 20 20 21 21 22 22 23 23 24 24 25 25 25 25 25 25 24 24 24 24 24 24 25 24 23 22 21 21 21 20 20 19 19 19 19 18 18 19 19 19 19 19 19 19 19 18 18 18 18 18 18 18 18 18 18 18 19 19 20 20 20 20 20 20 20 20 20 20 20 19 18 18 17 16
13 14 14 15 15 16 16 16 17 17 18 18 18 19 19 19 20 20 20 21 21 22 22 22 22 22 22 22 23 23 23 23 23 24 24 23 23 23 22 21 21 21 21 20 20 19 19 18 18 18 18 18 18 17 17 17 17 16 16 15 15 15 16 16 17 18 19 19 20 20 20 20 21 21 21 21 21 21 21 21 20 20 20 19 18 17 16
13 13 13 13 14 14 15 15 15 16 16 16 17 17 17 17 18 18 19 19 19 20 20 20 19 19 19 19 19 19 19 19 19 19 19 19 19 19 19 19 19 20 19 19 18 18 18 18 17 17 17 17 16 15 15 15 15 15 15 15 14 14 15 15 16 17 18 19 20 21 21 21 22 22 22 22 23 23 22 22 21 21 20 19 18 17 17
12 12 12 12 12 12 13 13 13 14 14 15 15 15 15 15 16 16 17 17 17 17 17 17 17 16 16 16 15 15 15 14 14 14 14 14 14 15 16 16 16 17 17 17 17 17 17 17 16 16 15 15 14 14 14 15 15 15 15 15 15 16 16 17 17 17 18 19 19 20 21 21 22 22 22 22 22 22 22 22 21 21 20 19 19 18 18
11 11 11 11 11 11 11 12 12 12 12 13 13 13 13 14 14 14 14 15 15 15 14 14 14 13 13 13 13 13 12 12 11 11 12 12 13 14 14 14 14 15 15 15 15 15 15 15 15 14 14 13 13 13 14 15 15 15 15 16 16 17 17 17 18 19 19 20 20 20 21 21 21 21 21 21 21 21 21 21 21 20 20 19 19 19 18
11 11 11 11 11 11 11 11 11 11 11 10 10 11 11 11 12 12 13 13 13 13 12 12 12 12 11 11 11 11 11 11 11 11 12 12 13 13 13 13 13 13 13 13 14 14 14 14 13 13 12 13 13 14 15 15 15 15 15 16 16 17 18 18 19 20 20 20 21 21 21 21 21 21 21 21 21 21 21 20 20 20 20 20 20 19 18
11 11 11 11 11 11 11 10 9 9 9 8 9 9 9 10 10 11 11 11 11 11 11 11 11 10 10 10 10 10 10 10 10 11 11 11 11 11 11 11 11 11 11 11 12 12 12 13 13 13 13 14 14 15 15 15 15 16 16 17 17 18 18 19 19 20 20 20 20 20 20 20 20 20 20 20 20 20 20 20 19 19 19 19 19 18 18
12 12 11 11 11 10 9 9 8 8 8 8 8 9 10 10 10 10 10 10 10 10 10 10 10 10 9 9 9 9 9 9 9 9 10 9 9 10 10 10 10 11 11 11 11 12 12 13 14 14 15 15 15 15 16 16 16 17 17 17 18 18 19 19 19 19 19 19 19 19 19 20 20 20 19 19 19 19 19 18 18 18 18 18 18 18 17
12 11 11 10 10 9 9 8 8 8 8 9 9 10 10 10 10 10 10 10 10 10 10 10 10 10 9 9 9 9 9 9 9 10 10 10 10 10 10 11 12 12 12 12 12 13 13 14 15 15 16 16 16 16 16 17 17 17 17 18 18 18 18 18 18 18 18 18 19 19 19 19 19 19 18 18 18 18 18 18 17 17 17 17 17 17 17
10 9 9 9 9 9 9 9 9 9 9 9 10 10 11 11 11 11 11 11 10 10 11 10 10 10 10 10 10 10 10 10 11 11 11 11 11 12 12 12 13 13 13 13 14 14 15 16 16 16 16 16 16 16 17 17 17 17 17 17 18 18 18 18 18 18 18 19 19 19 19 19 19 18 17 17 17 17 17 17 17 17 16 16 16 16 16
8 8 7 8 8 8 9 9 9 9 10 10 11 11 11 12 12 12 12 12 12 12 12 11 11 11 11 11 11 11 11 11 12 12 12 12 13 13 13 14 14 14 15 15 15 16 16 17 17 17 17 17 17 17 17 17 17 17 17 17 18 18 18 18 18 19 19 19 19 19 19 18 17 17 16 16 16 16 16 16 17 17 17 17 16 16 16
8 8 7 7 7 8 9 9 9 10 11 12 12 12 12 12 13 13 13 13 13 13 13 12 12 12 12 12 13 12 12 12 13 13 13 14 14 14 14 15 15 16 16 16 17 17 17 17 17 17 17 17 17 17 17 17 17 17 18 18 19 19 19 19 19 19 19 20 19 19 18 17 17 16 16 16 16 16 16 16 16 17 17 17 16 16 16
Wind_Direction
221 223 224 224 224 223 221 222 223 225 227 225 223 226 226 224 228 236 236 227 222 225 230 233 234 234 236 237 234 231 229 230 232 236 239 239 241 243 243 246 253 255 255 255 254 254 253 252 250 247 246 247 247 247 246 245 244 245 246 247 247 249 250 252 254 257 261 266 268 270 275 279 282 286 291 294 297 299 300 301 303 305 306 306 306 307 308
220 220 222 222 221 221 221 221 220 221 226 226 226 228 225 224 233 237 231 228 231 234 239 242 241 238 235 233 231 228 228 230 232 233 235 237 240 242 244 252 259 260 259 259 258 257 256 254 253 250 248 247 247 247 247 246 246 245 246 247 248 249 250 252 254 256 260 265 267 270 274 278 281 285 289 291 294 297 298 300 302 304 305 306 306 307 308
219 218 219 221 220 219 218 217 216 217 224 230 232 232 227 227 235 238 230 230 238 245 247 245 240 235 231 230 230 230 230 229 229 231 236 242 246 248 252 258 261 261 260 260 261 260 258 256 255 253 251 249 247 247 247 247 248 247 247 247 248 249 250 251 253 255 260 265 267 269 272 276 280 284 287 290 292 295 297 299 301 303 305 306 306 307 307
217 215 213 214 215 214 215 217 219 220 224 229 233 230 223 223 229 233 230 231 239 246 244 237 234 231 230 232 233 233 232 229 230 235 242 246 249 252 255 258 261 263 263 262 263 262 260 258 257 255 254 251 248 247 247 247 248 247 246 246 247 248 249 250 252 255 260 264 265 267 270 274 279 282 285 288 290 293 295 298 301 302 303 305 306 307 307
213 213 208 207 207 209 214 220 224 224 222 222 226 227 228 227 226 227 232 236 241 243 236 231 232 232 232 235 237 235 234 236 238 243 248 250 252 254 256 260 263 266 266 265 264 262 261 261 259 257 254 252 250 249 248 247 247 245 245 245 246 247 249 249 251 254 259 263 264 266 270 274 278 280 284 287 289 291 294 297 299 301 302 303 305 305 306
210 211 206 207 210 211 215 219 222 222 218 216 220 226 234 237 233 231 235 238 239 237 231 227 229 232 233 234 235 234 235 240 244 247 250 251 255 259 262 265 269 269 269 268 267 264 262 263 261 259 256 253 251 250 249 247 245 244 245 245 246 247 248 248 250 254 259 263 265 267 271 274 276 279 283 286 289 292 294 296 298 299 301 302 303 304 305
208 207 203 206 213 215 216 219 219 217 213 212 218 226 234 239 234 231 233 233 229 226 224 220 222 227 230 229 229 231 234 239 241 244 249 253 259 264 268 271 272 272 271 271 269 266 265 264 262 260 257 254 252 250 248 245 244 243 244 244 245 246 246 247 250 254 259 263 267 269 270 273 276 279 283 286 289 292 294 295 297 299 300 300 301 302 303
207 207 204 207 213 217 221 222 221 220 220 218 219 226 238 245 241 235 235 235 231 223 216 213 214 219 223 225 228 231 236 240 242 246 254 259 264 268 272 274 274 272 272 271 269 268 267 265 263 260 257 254 252 250 248 245 244 243 243 245 246 246 246 247 249 254 260 265 269 270 270 273 277 280 284 287 289 291 293 295 297 299 299 300 300 300 300
206 205 206 210 213 218 226 228 227 227 227 222 218 221 232 243 247 241 233 231 232 229 222 217 216 218 222 228 234 238 241 246 250 256 262 265 268 272 275 276 274 272 271 271 270 269 267 265 262 260 257 254 251 250 248 245 243 242 241 243 245 245 246 247 249 255 262 266 269 270 270 274 278 281 284 288 290 292 293 295 298 299 299 299 299 299 298
205 202 205 212 215 218 225 230 231 231 226 221 220 225 234 241 249 249 235 225 226 228 225 220 218 220 227 235 242 245 248 252 256 261 264 267 271 274 275 276 275 273 273 274 274 272 269 265 263 260 258 255 252 249 246 243 241 239 238 240 242 242 245 249 252 257 262 266 269 270 272 276 279 282 286 289 292 293 294 295 298 299 299 299 298 297 295
208 203 205 211 212 215 222 228 233 234 229 226 227 234 241 246 252 253 241 230 228 229 226 224 225 229 235 240 245 249 250 253 257 260 263 268 272 273 273 273 274 273 275 277 276 273 269 266 264 262 260 257 253 249 245 240 238 237 238 240 241 242 248 253 255 259 263 266 268 271 274 278 282 284 288 290 292 294 295 296 297 299 300 300 300 298 294
212 209 208 211 211 214 221 228 234 236 233 231 233 236 241 247 251 249 241 235 235 233 230 232 237 240 239 241 246 250 252 256 262 263 265 268 272 274 274 273 273 273 274 276 277 275 271 269 269 268 265 261 256 249 243 237 234 236 238 238 240 246 252 255 257 260 265 268 270 273 277 281 283 286 288 290 292 294 295 296 297 298 299 300 299 298 294
216 214 213 215 216 219 225 233 240 242 239 237 236 233 236 243 247 244 240 237 235 232 231 235 240 242 243 245 249 253 255 261 267 268 268 270 272 274 274 273 274 275 276 277 278 276 274 273 273 274 276 272 264 255 247 239 233 233 236 239 243 250 254 256 259 263 268 270 273 276 279 282 285 286 288 290 291 293 295 296 296 297 298 298 297 297 295
218 217 217 220 223 228 237 243 245 244 240 238 235 231 233 238 239 236 234 232 231 231 233 236 239 241 244 249 254 258 262 266 269 269 268 270 272 273 273 274 275 276 277 278 277 276 276 274 271 275 280 278 270 262 252 240 232 232 235 238 243 248 252 257 262 267 271 274 276 278 280 283 285 287 288 290 291 293 296 297 297 297 297 296 294 295 295
219 220 221 223 227 236 247 248 243 242 240 236 233 231 231 232 231 232 234 234 235 236 236 240 243 246 249 254 258 262 265 266 267 269 269 270 271 271 273 274 275 276 279 279 278 277 277 274 273 276 280 280 275 262 244 234 233 236 237 237 240 245 251 261 269 274 277 279 279 280 282 284 286 287 289 291 292 294 296 297 297 297 296 295 294 294 295
220 221 223 225 230 240 247 242 237 240 240 236 235 235 235 233 232 233 235 237 238 238 239 243 247 249 254 257 260 263 268 269 269 270 270 269 268 269 271 273 274 276 279 279 277 278 277 275 277 278 278 283 279 256 236 234 236 236 240 242 242 247 258 269 276 279 280 282 282 282 283 286 287 289 290 292 294 295 296 297 297 297 295 294 295 295 295
220 219 222 226 231 238 240 236 236 240 239 236 238 240 240 241 241 239 238 240 242 242 243 246 248 251 256 258 260 265 272 273 270 269 268 267 265 266 269 272 274 275 276 275 275 278 278 276 277 277 278 282 274 250 239 239 236 238 247 246 242 253 270 276 279 279 279 281 282 282 284 287 290 291 293 295 297 297 298 298 297 296 295 295 295 296 296
220 220 224 229 233 237 237 237 240 242 241 242 244 246 246 249 250 247 244 246 248 248 247 246 246 251 256 260 265 270 273 272 268 266 265 264 265 266 269 273 275 274 274 275 276 277 277 276 277 277 276 278 270 253 244 240 237 242 248 243 244 266 279 278 278 278 278 281 283 283 287 290 292 294 296 298 299 299 299 299 298 296 296 296 296 296 296
220 223 230 234 236 239 241 243 246 247 248 247 246 246 248 253 258 256 251 249 247 247 251 253 252 254 257 262 269 272 271 269 268 268 268 268 269 271 272 274 274 273 274 276 276 277 277 276 277 276 273 272 267 254 242 237 237 240 241 243 259 276 281 279 280 279 279 282 283 284 288 290 292 295 298 299 300 300 299 299 298 297 297 297 296 296 295
224 226 231 234 235 238 243 246 247 248 249 250 249 248 249 255 261 262 257 252 249 250 255 258 259 261 262 264 266 269 270 270 271 272 273 274 274 275 274 274 274 274 275 276 275 276 277 275 274 273 269 267 263 250 242 243 246 245 247 257 269 276 279 281 280 278 279 281 282 285 290 292 294 297 298 299 301 301 299 298 298 297 297 297 296 296 295
229 231 233 234 236 241 245 245 244 245 248 251 253 255 255 257 262 265 263 259 256 258 258 256 257 262 265 264 265 267 270 272 273 273 275 276 276 275 274 274 274 274 275 275 274 275 274 273 273 271 266 263 260 250 246 250 254 256 261 267 270 272 276 278 277 278 280 282 284 288 292 294 297 298 298 299 300 300 300 300 299 298 298 297 297 297 297
233 234 234 234 235 239 243 245 246 248 248 249 250 253 254 253 256 262 266 264 261 261 260 260 261 264 266 266 267 268 269 271 272 273 275 276 275 274 273 273 273 273 273 273 272 272 271 271 272 270 266 263 259 252 250 255 261 266 270 272 271 272 274 276 277 279 282 284 287 290 292 294 297 299 299 300 301 301 301 301 300 299 299 298 299 298 298
233 232 228 229 233 237 240 243 246 248 248 247 246 249 252 253 255 259 265 268 269 268 267 267 267 266 266 267 268 269 270 272 273 274 275 275 274 273 272 271 272 272 271 270 269 269 268 269 270 270 266 261 258 257 258 262 267 271 273 273 273 274 275 277 279 281 283 286 288 290 291 294 296 298 299 301 301 302 302 302 301 301 301 300 299 299 298
229 227 224 226 230 233 236 238 240 243 247 249 249 251 256 259 261 263 267 271 274 274 272 273 273 271 267 267 269 271 272 274 275 275 275 274 272 271 271 271 271 270 269 268 268 268 267 268 269 268 264 261 261 264 265 266 269 272 273 273 273 274 276 279 281 282 284 286 288 289 291 293 296 298 299 300 301 302 302 302 302 303 302 302 301 299 299
224 223 223 224 227 231 235 237 240 245 249 252 253 256 260 262 263 265 269 271 273 274 275 277 280 277 272 270 271 273 274 274 275 275 275 274 273 272 272 271 270 269 268 268 267 268 269 270 268 266 265 265 266 267 267 268 271 273 272 272 273 275 278 279 280 282 284 286 288 289 291 293 295 297 298 299 300 301 301 302 302 303 303 303 301 300 300
221 219 220 224 229 235 238 240 246 251 253 255 257 259 262 264 265 265 267 268 271 275 278 281 284 284 279 275 273 273 273 273 273 273 274 274 273 273 272 271 270 269 268 268 269 270 270 269 267 266 268 270 270 269 268 270 271 271 271 273 276 277 278 278 279 281 283 286 288 290 291 292 295 296 297 298 299 300 300 301 301 301 302 301 300 299 299
219 220 220 224 234 242 243 244 249 253 254 257 261 262 264 265 266 267 269 271 274 279 282 285 287 288 286 281 276 274 274 273 271 271 272 273 272 272 272 271 270 269 269 269 270 270 269 268 268 269 272 273 272 270 267 268 269 270 273 276 278 278 278 278 279 281 284 287 289 290 290 292 294 296 297 298 299 299 299 299 299 299 299 298 298 298 298
215 220 222 226 236 244 247 249 253 255 257 260 263 266 268 269 270 272 276 278 279 281 284 286 288 288 287 285 281 277 275 275 274 273 272 272 272 273 271 270 269 268 268 269 270 271 270 269 270 272 273 273 271 269 267 268 270 272 274 277 279 279 278 278 280 283 286 287 288 289 290 292 294 296 297 297 298 298 298 297 297 296 296 295 296 296 297
217 222 227 234 241 246 250 255 260 263 265 266 267 271 274 275 276 277 279 280 280 281 282 284 286 286 285 285 284 281 278 276 276 275 274 273 273 271 270 269 269 269 268 270 271 271 271 272 274 275 275 272 271 270 269 270 271 273 275 277 278 278 279 280 283 285 286 286 287 288 290 292 295 296 297 297 296 297 296 295 294 294 293 293 294 295 296
230 233 239 248 253 256 260 264 267 269 271 272 273 275 277 278 278 279 280 280 281 281 281 282 283 283 283 283 283 283 282 279 277 276 275 274 273 270 268 268 269 270 270 271 272 272 273 274 276 276 276 274 273 272 272 272 273 274 275 277 278 279 280 281 283 284 285 286 286 288 291 293 295 296 296 295 295 295 294 293 292 292 291 291 292 292 292
241 246 251 256 259 262 264 265 268 271 273 274 276 277 278 279 280 280 280 280 281 281 282 282 282 282 282 281 281 282 283 282 281 278 276 274 273 271 269 268 268 269 269 270 272 272 272 272 273 274 275 275 273 272 272 273 272 272 273 276 278 279 279 281 282 284 285 286 287 289 292 294 295 294 294 294 293 293 292 291 291 291 290 290 289 289 289
246 253 259 262 265 266 267 268 269 271 273 274 276 277 278 279 280 280 280 280 280 280 281 281 281 280 281 280 280 279 280 281 281 279 277 275 273 271 270 269 269 268 268 270 271 271 270 270 271 272 274 274 274 272 271 270 270 270 273 276 278 278 279 281 283 284 285 287 288 290 292 293 293 293 292 291 291 290 289 289 290 289 289 288 287 287 287
254 259 264 267 269 271 271 271 271 272 272 273 275 276 277 278 279 280 280 280 280 281 281 281 281 281 281 280 280 279 279 279 278 278 277 276 275 274 272 271 270 269 270 271 271 270 269 270 270 271 272 273 274 273 271 268 268 270 273 276 278 279 280 281 282 284 286 288 289 291 292 292 292 291 290 289 288 287 287 287 288 288 288 286 285 285 287
258 259 262 265 267 268 269 269 270 271 272 273 274 275 276 277 278 279 280 280 281 281 282 282 283 283 282 282 281 280 280 279 278 277 275 274 274 274 273 271 271 271 271 270 270 270 270 270 271 271 271 272 272 273 271 270 270 272 273 276 278 279 281 282 283 285 286 288 289 289 290 291 290 289 288 287 286 285 285 285 286 287 287 285 284 285 287
263 265 266 268 269 270 270 271 272 273 273 274 275 275 276 277 278 280 281 281 282 282 282 284 285 284 283 282 281 280 279 278 277 276 274 272 271 271 270 270 270 269 269 270 270 270 270 270 270 270 270 270 271 273 273 273 274 274 275 277 278 280 282 283 284 285 286 287 287 288 289 289 289 288 287 285 283 282 282 283 284 285 284 283 283 285 286
272 273 273 273 273 273 273 274 275 275 276 277 277 277 278 278 279 280 281 282 282 283 283 284 284 283 282 281 280 279 278 278 277 275 273 270 268 268 268 268 267 267 269 271 270 268 268 269 268 268 269 271 273 275 275 276 276 277 277 278 280 282 283 284 284 285 285 286 287 288 288 287 286 285 284 283 282 281 281 281 282 282 282 282 283 284 286
277 277 277 278 279 278 278 279 279 279 280 281 281 281 282 282 282 283 283 283 283 283 283 283 283 282 281 281 281 281 280 279 277 273 270 268 267 267 267 268 267 267 268 268 266 266 267 267 267 267 270 273 274 275 276 277 278 279 280 281 282 283 283 283 283 284 285 285 286 286 285 285 284 284 283 283 282 282 282 282 282 282 282 282 283 283 283
280 281 282 283 283 283 283 283 283 282 282 283 284 284 285 285 284 284 284 284 283 283 283 283 282 281 281 282 283 283 283 282 279 275 271 268 266 266 267 268 267 266 266 266 266 266 266 266 266 269 272 273 275 276 277 277 279 280 281 282 282 282 282 282 283 284 285 284 284 283 283 283 283 283 283 284 284 284 284 283 283 283 282 282 282 282 280
283 284 285 285 284 284 284 284 284 283 283 283 284 284 286 287 287 287 287 287 286 286 285 284 283 282 282 282 282 281 280 279 277 275 272 267 264 264 265 266 265 265 266 266 266 266 266 265 267 271 273 274 276 278 278 278 279 280 280 281 281 281 281 281 282 283 283 282 281 281 282 283 284 284 284 284 285 285 285 283 282 283 283 282 281 280 278
284 285 285 285 285 284 284 283 283 283 284 284 284 285 288 289 289 290 290 290 290 290 288 287 285 283 283 282 282 280 278 274 272 270 269 266 264 265 265 265 264 264 264 264 264 264 264 265 267 270 273 276 279 279 278 278 279 280 280 281 281 281 280 280 281 281 281 280 280 280 281 283 284 284 284 284 285 285 284 283 283 283 282 281 280 278 276
288 288 287 287 288 287 286 285 284 284 285 285 286 287 289 290 291 292 293 294 294 293 292 289 287 285 284 282 280 278 276 274 272 269 268 266 266 266 265 265 264 263 262 261 262 263 264 264 267 271 274 276 278 278 278 278 278 280 281 282 282 281 280 280 280 280 280 280 280 281 282 283 283 283 283 284 284 284 284 283 283 282 280 279 279 278 275
294 293 292 291 291 291 291 290 289 288 288 289 290 291 292 293 294 295 295 296 296 296 294 292 290 288 286 283 280 277 275 274 273 272 270 267 264 264 265 266 266 263 261 261 262 263 264 266 269 272 274 275 277 278 278 276 276 278 281 283 283 283 283 282 281 280 280 280 281 282 283 283 283 283 284 284 284 284 284 283 281 280 278 278 278 277 275
300 300 298 297 297 297 297 296 294 292 291 292 293 294 294 296 298 299 299 299 299 298 297 296 295 293 290 287 284 282 279 276 275 274 271 266 263 264 265 266 264 261 259 260 262 264 265 268 270 271 272 273 274 274 275 276 276 277 278 280 282 283 285 285 284 284 285 285 284 284 284 284 285 285 285 285 284 283 282 281 280 278 277 277 277 276 275
305 306 306 306 305 305 303 301 299 296 295 295 296 296 297 299 301 302 303 303 303 302 301 300 298 296 295 293 290 288 285 282 277 272 267 264 265 267 267 264 263 261 259 260 263 266 266 267 267 267 267 268 268 270 273 277 278 277 277 278 280 283 285 287 288 289 290 290 289 288 288 287 287 287 286 286 285 283 281 280 279 278 276 276 276 276 275
307 307 307 308 308 308 307 305 304 302 300 299 299 299 299 301 304 306 308 308 308 308 307 305 302 300 298 296 293 291 289 285 279 271 266 267 270 271 268 265 263 262 260 261 263 265 265 263 262 262 263 264 266 269 274 278 280 280 279 279 281 283 286 287 289 290 291 291 291 291 290 289 288 286 285 284 283 282 281 280 278 276 275 274 274 274 273
303 304 305 307 307 307 305 305 305 306 308 308 308 306 305 306 309 312 313 313 311 311 310 309 306 302 299 298 296 293 289 285 281 276 274 274 274 272 269 265 263 262 262 262 263 263 262 260 260 261 261 263 267 272 276 279 280 280 280 281 282 284 286 287 288 289 290 290 290 291 292 291 288 286 284 283 282 281 280 279 277 274 273 272 271 270 270
302 302 303 303 304 305 305 306 308 311 315 318 319 318 315 314 315 317 319 320 318 316 315 313 310 305 301 300 299 295 292 290 288 285 282 280 276 272 268 264 262 262 264 265 264 263 261 260 260 262 263 266 270 275 277 278 279 279 281 282 284 285 286 287 287 288 289 289 290 291 293 293 291 289 286 285 282 280 279 277 275 274 272 270 268 267 265
301 301 300 300 301 302 305 309 311 313 315 318 320 322 322 320 319 320 322 324 325 323 321 319 316 312 307 303 300 296 294 294 293 291 289 285 279 273 270 267 265 265 267 267 266 264 262 262 264 266 267 270 273 275 276 277 279 280 281 283 284 285 287 288 288 288 289 290 291 292 294 296 295 292 289 285 283 280 278 277 275 274 272 269 266 264 263
300 299 298 298 297 298 302 306 310 312 313 314 316 318 319 319 319 318 317 319 321 321 320 319 318 315 310 305 301 299 297 296 294 291 289 285 280 275 272 270 268 268 268 269 269 268 267 266 267 269 270 272 274 275 276 278 280 281 282 283 284 285 287 288 288 289 290 292 293 294 296 298 298 295 290 287 284 282 279 276 275 275 274 271 267 264 262
304 303 300 297 294 295 298 302 305 309 311 311 311 312 313 313 313 312 311 312 314 315 314 313 312 310 307 303 300 297 295 294 292 291 289 287 283 279 276 274 273 271 270 270 271 272 272 272 272 272 273 273 275 276 278 279 281 281 282 283 284 285 286 287 288 290 291 293 295 296 298 299 299 296 292 288 287 284 280 276 274 273 273 271 268 264 261
311 308 304 301 300 300 300 300 300 303 307 309 309 310 310 309 308 306 307 308 309 309 308 308 308 306 302 300 297 296 294 293 292 291 290 288 286 283 281 279 276 274 272 272 273 275 276 276 276 276 276 276 277 278 279 280 281 281 282 283 285 286 286 288 291 293 294 295 296 296 296 297 297 295 292 289 289 287 284 279 275 273 271 269 266 263 260
309 306 303 304 305 305 303 300 298 299 303 306 307 307 308 307 305 303 302 301 301 301 301 303 304 304 302 299 296 294 292 291 290 290 289 288 287 285 283 281 278 275 274 274 275 276 277 278 277 276 276 277 277 278 279 280 281 281 283 284 285 287 288 290 293 295 295 295 294 294 293 294 294 292 291 289 289 287 285 281 277 274 271 267 263 261 259